San Diego, CA

6:50 PM PDT on April 26, 2018 (GMT -0700)
San Diego International-Lindbergh

Weather History for KSAN - August, 2013

Change the Weather History Date:

Friday, August 2, 2013

  Actual Average Record
Temperature  
Mean Temperature 68 °F 71 °F  
Max Temperature 70 °F 76 °F 85 °F (1971)
Min Temperature 65 °F 67 °F 59 °F (1944)
Degree Days  
Heating Degree Days 0 0  
Month to date heating degree days 0 0  
Since 1 June heating degree days 15 19  
Since 1 July heating degree days 0 1  
Cooling Degree Days 3 6  
Month to date cooling degree days 8 12  
Year to date cooling degree days 302 277  
Since 1 June cooling degree days 248 228  
Growing Degree Days 17 (Base 50)    
Moisture  
Dew Point 56 °F    
Average Humidity 67    
Maximum Humidity 73    
Minimum Humidity 61    
Precipitation  
Precipitation 0.00 in 0.00 in 0.40 in (1852)
Month to date precipitation 0.00 0.00  
Year to date precipitation 3.38 7.06  
Since 1 July precipitation 0.05  
Snow  
Snow 0.00 in - - ()
Month to date snowfall 0.0  
Year to date snowfall 0.0  
Snow Depth 0.00 in    
Sea Level Pressure  
Sea Level Pressure 29.97 in    
Wind  
Wind Speed 7 mph (SSW)    
Max Wind Speed 13 mph    
Max Gust Speed 16 mph    
Visibility 10 miles    
Events      
T = Trace of Precipitation, MM = Missing Value Source: NWS Daily Summary

Daily Weather History Graph

Daily Weather History Graph

Search for Another Location

Airport or City:

Astronomy

Aug. 02, 2013 Rise Set
Actual Time 6:03 AM PDT 7:45 PM PDT
Civil Twilight 5:36 AM PDT 8:12 PM PDT
Nautical Twilight 5:04 AM PDT 8:44 PM PDT
Astronomical Twilight 4:30 AM PDT 9:18 PM PDT
Moon 2:30 AM PDT (8/2) 4:44 PM PDT (8/2)
Length of Visible Light 14h 35m
Length of Day
13h 42m
Waning Crescent, 15% of the Moon is Illuminated
Aug 2
Waning Crescent
Aug 6
New
Aug 14
First Quarter
Aug 20
Full
Aug 28
Last Quarter

Hourly Weather History & Observations

Time (PDT) Temp. Dew Point Humidity Pressure Visibility Wind Dir Wind Speed Gust Speed Precip Events Conditions
12:51 AM 66.0 °F 57.0 °F 73% 29.98 in 10.0 mi South 4.6 mph - N/A   Overcast
1:51 AM 66.0 °F 55.9 °F 70% 29.96 in 10.0 mi SSE 8.1 mph - N/A   Overcast
2:51 AM 66.0 °F 57.0 °F 73% 29.95 in 10.0 mi South 5.8 mph - N/A   Overcast
3:51 AM 66.0 °F 55.9 °F 70% 29.94 in 10.0 mi South 8.1 mph - N/A   Overcast
4:51 AM 64.9 °F 55.9 °F 73% 29.93 in 9.0 mi SSW 5.8 mph - N/A   Overcast
5:51 AM 64.9 °F 55.9 °F 73% 29.94 in 9.0 mi South 5.8 mph - N/A   Overcast
6:51 AM 66.0 °F 55.9 °F 70% 29.95 in 8.0 mi SSW 6.9 mph - N/A   Overcast
7:51 AM 66.0 °F 55.9 °F 70% 29.97 in 8.0 mi South 6.9 mph - N/A   Overcast
8:51 AM 66.0 °F 55.9 °F 70% 29.98 in 7.0 mi SSW 6.9 mph - N/A   Mostly Cloudy
9:34 AM 66.2 °F 55.4 °F 68% 29.97 in 8.0 mi SSW 6.9 mph - N/A   Mostly Cloudy
9:51 AM 66.9 °F 55.9 °F 68% 29.98 in 8.0 mi SW 5.8 mph - N/A   Mostly Cloudy
10:51 AM 68.0 °F 55.9 °F 65% 29.98 in 10.0 mi SSW 8.1 mph - N/A   Scattered Clouds
11:51 AM 69.1 °F 55.9 °F 63% 29.97 in 10.0 mi South 8.1 mph - N/A   Scattered Clouds
12:51 PM 69.1 °F 55.9 °F 63% 29.98 in 10.0 mi South 8.1 mph - N/A   Scattered Clouds
1:51 PM 69.1 °F 55.9 °F 63% 29.97 in 10.0 mi SW 8.1 mph - N/A   Scattered Clouds
2:51 PM 69.1 °F 55.9 °F 63% 29.97 in 10.0 mi SW 9.2 mph - N/A   Scattered Clouds
3:51 PM 69.1 °F 55.9 °F 63% 29.96 in 10.0 mi Variable 5.8 mph - N/A   Scattered Clouds
4:51 PM 68.0 °F 55.9 °F 65% 29.95 in 10.0 mi South 5.8 mph - N/A   Scattered Clouds
5:51 PM 68.0 °F 55.9 °F 65% 29.95 in 10.0 mi WSW 6.9 mph - N/A   Scattered Clouds
6:51 PM 68.0 °F 55.9 °F 65% 29.95 in 10.0 mi SW 6.9 mph - N/A   Scattered Clouds
7:51 PM 66.9 °F 57.0 °F 70% 29.96 in 10.0 mi South 6.9 mph - N/A   Scattered Clouds
8:51 PM 66.0 °F 57.0 °F 73% 29.97 in 10.0 mi South 6.9 mph - N/A   Mostly Cloudy
9:36 PM 66.2 °F 57.2 °F 73% 29.99 in 10.0 mi SSW 5.8 mph - N/A   Mostly Cloudy
9:51 PM 66.0 °F 57.0 °F 73% 30.00 in 10.0 mi South 6.9 mph - N/A   Mostly Cloudy
10:51 PM 64.9 °F 55.9 °F 73% 29.99 in 10.0 mi Calm Calm - N/A   Mostly Cloudy
11:51 PM 64.9 °F 55.9 °F 73% 30.00 in 10.0 mi Calm Calm - N/A   Overcast